Flag for Belgium Weather past 2 weeks in Mons, Belgium

Now
61 °F

Broken clouds.


Feels Like: 61 °F
Forecast: 47 / 61 °F
Wind: 9 mph from North

Location: Chievres

Current Time: Sep 21, 2014 at 10:10:17 AM

Latest Report: Sep 21, 2014 at 9:25 AM


Visibility: 4 mi

Pressure: 30.04 "Hg

Humidity: 94%

Dew point: 59 °F

Location of MonsLocation

Historic Weather in Mons — Graph

°F

Mons temperature yesterday

Maximum temperature yesterday: 75 °F (at 3:25 PM)
Minimum temperature yesterday: 59 °F (at 3:25 AM)
Average temperature yesterday: 64 °F

Past Weeks' High & Low Weather Summary

 TemperatureHumidityPressure
High79 °F (Sep 17, 2:25 PM)100% (Sep 6, 8:25 AM)30.27 "Hg (Sep 6, 8:25 AM)
Low46 °F (Sep 11, 7:25 AM)45% (Sep 17, 2:25 PM)29.77 "Hg (Sep 18, 5:25 AM)
Average61 °F85%30.03 "Hg
* Reported Sep 6 8:25 AM — Sep 21 8:25 AM, Mons, Weather by CustomWeather, © 2014

Note: Actual official high and low records may vary slightly from our data, if they occured in-between our weather recording intervals... More about our weather records

Advertising

Mons weather history for previous 24 hours

 ConditionsComfort  
Time TempWeatherWind HumidityBarometerVisibility
8:25 AM
Sep 21
61 °FPartly cloudy.6 mph94%30.04 "Hg4 mi
7:25 AM61 °FPassing clouds.7 mph100%30.01 "Hg2 mi
6:25 AM61 °FOvercast.3 mph100%30.01 "Hg1 mi
5:25 AM61 °FPartly cloudy.3 mph100%30.01 "Hg2 mi
4:25 AM61 °FPassing clouds.5 mph100%30.01 "Hg2 mi
3:25 AM61 °FPartly cloudy.6 mph94%30.01 "Hg2 mi
2:25 AM61 °FPartly cloudy.5 mph94%30.04 "Hg2 mi
1:25 AM63 °FPassing clouds.6 mph94%30.04 "Hg2 mi
12:25 AM63 °FPassing clouds.7 mph94%30.01 "Hg2 mi
11:25 PM
Sep 20
63 °FPartly cloudy.8 mph94%30.01 "Hg2 mi
10:46 PM63 °FPassing clouds.9 mph100%30.01 "Hg1 mi
10:25 PM63 °FDense fog.10 mph100%30.01 "Hg1 mi
9:25 PM64 °FMostly cloudy.1 mph94%30.01 "Hg1 mi
8:25 PM64 °FPartly sunny.7 mph100%29.98 "Hg2 mi
7:25 PM68 °FPartly sunny.8 mph88%29.98 "Hg2 mi
3:25 PM75 °FScattered clouds.5 mph65%29.95 "HgN/A
2:25 PM73 °FPassing clouds.3 mph74%29.98 "HgN/A
1:25 PM72 °FBroken clouds.2 mph73%29.98 "HgN/A
12:25 PM72 °FScattered clouds.2 mph78%29.98 "HgN/A
11:25 AM68 °FPartly sunny.5 mph88%29.98 "HgN/A
10:25 AM66 °FBroken clouds.3 mph88%29.98 "HgN/A
Weather by CustomWeather, © 2014

See weather overviewHow to use our weather pages